Location: Home
(42.5358°N, 72.7383°W)
Time: 17:51:31
(UTC-05:00)

A-11 Canister half - Pass Details

Date: 08 December 2021
Orbit: 1516 x 1684 km, 47.2° (Epoch: 18 January)

Event Time Altitude Azimuth Distance (km) Brightness Sun altitude
Rises 06:37:28 0° 249° (WSW) 4,735 11.2 -5.8°
Reaches altitude 10° 06:40:29 10° 250° (WSW) 3,774 10.7 -5.3°
Maximum altitude 06:50:09 84° 339° (NNW) 1,633 9.2 -3.7°
Drops below altitude 10° 07:00:13 10° 68° (ENE) 3,912 11.8 -2.1°
Sets 07:03:25 0° 70° (ENE) 4,915 12.3 -1.6°
